Location: Branche des Alpilles
(43.6087°N, 4.6976°E)
Time: 06:04:20
(UTC+00:00)

Cosmos 44 - Pass Details

Date: 30 November 2020
Orbit: 574 x 788 km, 65.1° (Epoch: 27 January)

Event Time Altitude Azimuth Distance (km) Brightness Sun altitude
Rises 17:04:06 0° 324° (NW) 3,210 6.9 -10.4°
Reaches altitude 10° 17:06:28 10° 323° (NW) 2,305 6.2 -10.8°
Maximum altitude 17:11:47 76° 239° (WSW) 810 3.8 -11.7°
Drops below altitude 10° 17:17:12 10° 154° (SSE) 2,342 5.9 -12.6°
Sets 17:19:37 0° 153° (SSE) 3,265 6.7 -13.0°
